CST,Max TemperatureF,Mean TemperatureF,Min TemperatureF,Max Dew PointF,MeanDew PointF,Min DewpointF,Max Humidity, Mean Humidity, Min Humidity, Max Sea Level PressureIn, Mean Sea Level PressureIn, Min Sea Level PressureIn, Max VisibilityMiles, Mean VisibilityMiles, Min VisibilityMiles, Max Wind SpeedMPH, Mean Wind SpeedMPH, Max Gust SpeedMPH,PrecipitationIn, CloudCover, Events, WindDirDegrees
2012-11-1,84,72,61,72,65,59,94,85,58,30.08,30.03,29.99,10,5,0,10,2,,0.00,1,Fog,172
2012-11-2,84,73,62,70,65,61,94,84,55,30.05,30.01,29.97,10,6,1,15,4,,0.01,0,,148
2012-11-3,87,77,70,69,67,61,90,74,47,30.08,30.03,29.99,10,10,9,20,8,25,0.00,1,,142
2012-11-4,88,76,64,70,65,59,94,79,39,30.10,30.05,30.01,10,10,8,15,5,120,0.00,2,,28
2012-11-5,82,72,62,72,66,60,100,87,60,30.08,30.03,29.95,10,6,0,21,3,28,0.06,4,Fog-Rain-Thunderstorm,269
2012-11-6,80,68,57,60,48,40,81,53,25,30.16,30.10,30.02,10,10,10,13,7,,0.00,1,,13
2012-11-7,80,66,53,63,54,46,82,65,35,30.19,30.12,30.07,10,10,10,12,5,,0.00,0,,190
2012-11-8,82,73,64,66,62,58,90,68,47,30.17,30.11,30.07,10,10,10,18,8,23,0.00,0,,144
2012-11-9,82,78,73,65,64,63,76,66,52,30.12,30.07,30.04,10,10,10,21,14,29,0.00,1,,152
2012-11-10,82,78,73,69,65,60,76,64,51,30.07,30.01,29.95,10,10,10,20,15,28,0.00,1,,152
2012-11-11,82,72,62,71,68,55,87,75,65,30.12,29.97,29.87,10,9,2,26,15,32,0.24,5,Rain,157
2012-11-12,70,61,50,56,44,31,78,55,24,30.42,30.29,30.12,10,10,10,25,15,31,0.06,4,,10
2012-11-13,62,54,46,39,33,27,66,48,26,30.45,30.38,30.31,10,10,10,20,10,25,0.00,1,,36
2012-11-14,64,57,48,38,34,28,61,43,25,30.40,30.33,30.28,10,10,10,14,8,18,0.00,6,,27
2012-11-15,70,56,43,48,42,35,76,57,33,30.30,30.26,30.20,10,10,10,12,6,,0.00,5,,64
2012-11-16,72,60,45,46,39,29,76,51,20,30.34,30.29,30.25,10,10,10,17,8,23,0.00,3,,36
2012-11-17,73,57,41,49,41,35,81,61,26,30.37,30.31,30.27,10,10,8,13,6,,0.00,0,,51
2012-11-18,73,60,46,53,49,40,83,68,46,30.30,30.26,30.22,10,10,9,14,8,22,0.00,0,,81
2012-11-19,75,64,52,59,54,47,90,73,46,30.27,30.21,30.16,10,9,4,10,6,,0.00,0,,100
2012-11-20,77,66,54,63,57,52,94,82,48,30.22,30.18,30.14,10,6,0,9,4,,0.00,1,Fog,119
2012-11-21,79,66,52,61,55,50,100,86,42,30.27,30.20,30.17,10,4,0,10,3,,0.01,1,Fog,83
2012-11-22,79,64,50,63,54,48,100,80,42,30.20,30.15,30.11,10,5,0,15,4,,0.00,2,Fog,129
2012-11-23,80,70,61,66,63,58,90,80,52,30.31,30.21,30.13,10,8,2,16,5,71,0.32,6,Rain-Thunderstorm,132
2012-11-24,69,61,51,59,40,30,83,52,24,30.37,30.28,30.18,10,10,7,14,10,,0.00,3,,35
2012-11-25,75,62,48,66,55,43,90,75,53,30.16,30.06,29.97,10,10,9,9,5,,0.00,2,,114
2012-11-26,78,70,62,69,66,60,100,87,74,30.07,29.99,29.94,10,7,0,12,5,18,0.01,1,Fog,201
2012-11-27,68,58,46,57,47,43,87,61,46,30.35,30.25,30.09,10,10,2,25,17,33,0.04,3,Rain,353
2012-11-28,69,58,46,52,46,41,90,73,44,30.43,30.35,30.29,10,10,5,13,8,,0.00,2,,48
2012-11-29,73,62,50,63,56,47,89,77,59,30.27,30.20,30.14,10,10,7,16,9,78,0.00,4,,75
2012-11-30,80,72,64,68,65,62,93,83,64,30.17,30.12,30.08,10,9,6,13,7,,0.00,3,,134